Change the Weather History Date:

Sunday, August 18, 2013

  Actual Average Record
Temperature  
Mean Temperature 69 °F 74 °F  
Max Temperature 74 °F 84 °F 99 °F (1986)
Min Temperature 63 °F 65 °F 60 °F (1962)
Degree Days  
Heating Degree Days 0 0  
Month to date heating degree days 0 0  
Since 1 June heating degree days 0 6  
Since 1 July heating degree days 0 0  
Cooling Degree Days 4 9  
Month to date cooling degree days 104 162  
Year to date cooling degree days 657 640  
Since 1 June cooling degree days 508 537  
Growing Degree Days 18 (Base 50)    
Moisture  
Dew Point 59 °F    
Average Humidity 73    
Maximum Humidity 84    
Minimum Humidity 61    
Precipitation  
Precipitation 0.00 in 0.00 in 0.33 in (1983)
Month to date precipitation 0.00 0.02  
Year to date precipitation 2.94 8.49  
Since 1 July precipitation 0.07 0.05  
Sea Level Pressure  
Sea Level Pressure 29.87 in    
Wind  
Wind Speed 4 mph (SSE)    
Max Wind Speed 12 mph    
Max Gust Speed 16 mph    
Visibility 9 miles    
Events      
T = Trace of Precipitation, MM = Missing Value Source: NWS Daily Summary

Daily Weather History Graph

Daily Weather History Graph

Search for Another Location

Airport or City:

Trip Planner

Search our weather history database for the weather conditions in past years. The results will help you decide how hot, cold, wet, or windy it might be!

Date:

Astronomy

Aug. 18, 2013 Rise Set
Actual Time 6:16 AM PDT 7:35 PM PDT
Civil Twilight 5:50 AM PDT 8:01 PM PDT
Nautical Twilight 5:19 AM PDT 8:32 PM PDT
Astronomical Twilight 4:46 AM PDT 9:04 PM PDT
Moon 5:42 PM PDT (8/18) 3:35 AM PDT (8/18)
Length of Visible Light 14h 10m
Length of Day
13h 18m
Waxing Gibbous, 93% of the Moon is Illuminated
Aug 18
Waxing Gibbous
Aug 20
Full
Aug 28
Last Quarter
Sep 5
New
Sep 12
First Quarter

Hourly Weather History & Observations

Time (PDT) Temp. Dew Point Humidity Pressure Visibility Wind Dir Wind Speed Gust Speed Precip Events Conditions
12:53 AM 66.0 °F 57.9 °F 75% 29.86 in 10.0 mi Calm Calm - N/A   Clear
1:53 AM 64.9 °F 59.0 °F 81% 29.86 in 9.0 mi SE 5.8 mph - N/A   Clear
2:29 AM 64.4 °F 60.8 °F 88% 29.85 in 8.0 mi Calm Calm - N/A   Partly Cloudy
2:53 AM 64.0 °F 59.0 °F 84% 29.85 in 7.0 mi ESE 3.5 mph - N/A   Partly Cloudy
3:16 AM 64.4 °F 59.0 °F 83% 29.84 in 7.0 mi Calm Calm - N/A   Mostly Cloudy
3:28 AM 64.4 °F 59.0 °F 83% 29.84 in 8.0 mi Calm Calm - N/A   Scattered Clouds
3:53 AM 64.0 °F 59.0 °F 84% 29.83 in 8.0 mi Calm Calm - N/A   Mostly Cloudy
4:53 AM 63.0 °F 59.0 °F 87% 29.83 in 7.0 mi Calm Calm - N/A   Overcast
5:44 AM 62.6 °F 59.0 °F 88% 29.85 in 7.0 mi SSE 4.6 mph - N/A   Overcast
5:53 AM 63.0 °F 59.0 °F 87% 29.86 in 7.0 mi SE 3.5 mph - N/A   Overcast
6:53 AM 63.0 °F 59.0 °F 87% 29.86 in 7.0 mi Calm Calm - N/A   Overcast
7:53 AM 64.9 °F 59.0 °F 81% 29.87 in 5.0 mi Calm Calm - N/A   Haze
8:53 AM 66.9 °F 59.0 °F 76% 29.87 in 7.0 mi Calm Calm - N/A   Partly Cloudy
9:15 AM 69.8 °F 60.8 °F 73% 29.87 in 7.0 mi Calm Calm - N/A   Partly Cloudy
9:53 AM 71.1 °F 60.1 °F 68% 29.88 in 8.0 mi Variable 4.6 mph - N/A   Partly Cloudy
10:53 AM 70.0 °F 60.1 °F 71% 29.88 in 7.0 mi SSW 6.9 mph - N/A   Partly Cloudy
11:53 AM 71.1 °F 60.1 °F 68% 29.88 in 8.0 mi SSW 5.8 mph - N/A   Partly Cloudy
12:53 PM 73.0 °F 59.0 °F 61% 29.88 in 10.0 mi South 5.8 mph - N/A   Clear
1:53 PM 73.0 °F 60.1 °F 64% 29.86 in 10.0 mi Variable 6.9 mph - N/A   Clear
2:53 PM 72.0 °F 59.0 °F 64% 29.85 in 10.0 mi SSW 9.2 mph - N/A   Clear
3:53 PM 71.1 °F 59.0 °F 66% 29.84 in 10.0 mi Variable 5.8 mph - N/A   Clear
4:53 PM 70.0 °F 59.0 °F 68% 29.84 in 10.0 mi SSE 9.2 mph - N/A   Clear
5:53 PM 69.1 °F 59.0 °F 70% 29.84 in 10.0 mi SSE 6.9 mph - N/A   Clear
6:53 PM 66.9 °F 59.0 °F 76% 29.85 in 9.0 mi South 5.8 mph - N/A   Clear
7:51 PM 64.4 °F 57.2 °F 77% 29.86 in 10.0 mi Variable 5.8 mph - N/A   Partly Cloudy
7:53 PM 64.9 °F 57.9 °F 78% 29.86 in 10.0 mi South 6.9 mph - N/A   Partly Cloudy
8:53 PM 64.9 °F 57.9 °F 78% 29.88 in 10.0 mi SSE 5.8 mph - N/A   Scattered Clouds
9:04 PM 64.4 °F 57.2 °F 77% 29.89 in 10.0 mi Calm Calm - N/A   Mostly Cloudy
9:53 PM 64.9 °F 59.0 °F 81% 29.90 in 10.0 mi SE 3.5 mph - N/A   Mostly Cloudy
10:01 PM 64.4 °F 59.0 °F 83% 29.90 in 10.0 mi Calm Calm - N/A   Partly Cloudy
10:31 PM 64.4 °F 57.2 °F 77% 29.90 in 10.0 mi Variable 3.5 mph - N/A   Scattered Clouds
10:42 PM 64.4 °F 59.0 °F 83% 29.90 in 10.0 mi South 4.6 mph - N/A   Mostly Cloudy
10:53 PM 64.9 °F 59.0 °F 81% 29.91 in 10.0 mi SSW 3.5 mph - N/A   Overcast
11:53 PM 66.0 °F 59.0 °F 78% 29.92 in 10.0 mi SSE 4.6 mph - N/A   Overcast